Timeline UpdatesTrip UpdatesNews PostsPvt PostsTravel TipsAdmin PostsConv PostsFollowed PostsChat RequestsBlog PostsPNR Posts

Disclaimer
Search
 
 
Fri Apr 18, 2014 11:02:11 ISTHomeTrainsΣChainsAtlasPNRForumGalleryNewsFAQTripsMembersLoginFeedback
No Recent News for this Train
Other Trains in the News **new
Latest...
.
Wed May 15, 2013 (12:03AM)
⇐ Return Journey: Train# 59439

59440/Ahmedabad - Mumbai Central Passenger

Oct 10 2013 (2:14AM)
Change Departure Station:
Change Arrival Station:
Post a Train Travel TipPost a Train Travel Tip **new
Post a Comment/Question/Picture/VideoPost a Comment/Question/Picture/Video
Pantry/Catering
✕ NO Pantry Car
✕ NO Catering
RSA - Rake Sharing
59439,59440,59441 and 59442 all share rakes.
Rake/Coach Composition
Loco
BL WCAM-1/BRC WAG-5A
News    PNR    Forum    Time-Table    Availability    Fare Chart    Map    Arr/Dep History    Trips    Gallery    ΣChains    X/O    Timeline    
Travel Time: 12h 22m    54 halts    Distance: 373 km    Avg Speed: 30 km/hr
Type: Passenger
Zone: WR/Western
Departs @ 23:00 (Avg 3m late)
Platform# 2
SMTWTFS
Ahmedabad Junction/ADI 
Arrives @ 11:22 +1 night (Avg 12m late)
Platform# ???
SMTWTFS
Dahanu Road/DRD 

54 halts. 72 intermediate Stations between Ahmedabad Junction and Dahanu Road

Show ALL intermediate Stations  Show Old Time-Table

#CodeStation NameX/OArrivesAvgDepartsAvgHaltPFDay#KmSpeedElevZoneAddress
1ADI»Ahmedabad Junction (12)»  -23:00+3210.01951mWRAhmedabad, Gujarat
2MANManinagar (2)X  23:10+423:12+42m213.25850mWRAhmadabad, Gujarat
3VTAVatva (4)X  23:17+423:19+52m--18.02549mWRDist. Ahmedabad 382445, Gujarat
4BJDBarejadi (3)XO  23:40+1723:41+171m--116.64442mWRBareja-Barejadi Rd, Gujarat
5KANJKanij (3)O  23:47+1723:48+241m--121.01239mWRBareja-Barejadi Rd, Gujarat
6NEPNenpur (2)O  00:02+1500:03+151m--223.94235mWRState Highway 3, Gujarat
7MHDMahemdavad Kheda Road (4)X  00:09+1500:10+201m--228.02237mWRMahemdavad, Gujarat
8GTEGothaj (2)  00:24+1500:26+192m--233.28232mWRState Highway 3, Gujarat
9NDNadiad Junction (4)X  00:35+2000:39+184m--245.66037mWRNadiad, Gujarat
10KBRVKanjari Boriyavi Junction (4)XO  00:50+1900:52+202m--256.61939mWRKanjari, Gujarat
11ANNDAnand Junction (6)  01:15+1201:20+95m--264.05244mWRAnand, Gujarat
12VXDVadod (3)X  01:28+901:29+101m--270.93544mWRAnand District, Gujarat
13ADDAdas Road (4)X  01:36+901:37+91m--274.94042mWRNational Highway 8, Gujarat
14VDAVasad Junction (3)  01:44+801:46+82m--279.66940mWRVasad, Gujarat
15RNORanoli (2)X  01:54+1001:55+101m--288.72139mWRVadodara District, Gujarat
16BJWBajva (3)X  02:06+1002:07+111m--292.51738mWRVadodara, Gujarat
17BRCVadodara Junction (7)X  02:33+802:38+105m--299.86436mWRVadodara, Gujarat
18ITAItola (4)  02:55+1402:56+221m--2118.07027mWRNational Highway 8, Gujarat
19MYGMiyagam Karjan (2)  03:06+3003:08+302m--2129.67029mWRKarjan, Gujarat
20PLJPalej (4)XO  03:21+3403:23+402m--2144.92329mWRPalej, Gujarat
21NIUNabipur (3)XO  03:58+2603:59+271m--2158.24524mWRNabipur, Gujarat
22BHBharuch Junction (5)XO  04:15+2504:20+285m42170.32919mWRBharuch, Gujarat
23AKVAnkleshwar Junction (4)X  04:39+2004:41+232m22179.66919mWRAnkleshwar, Gujarat
24PAOPanoli (3)X  04:50+2404:52+272m--2189.93929mWRPanoli, Gujarat
25HATHathuran (2)  04:58+2505:00+252m--2193.85232mWRKosamba, Gujarat
26KSBKosamba Junction (3)X  05:05+2505:07+242m--2198.25230mWRKosamba, Gujarat
27KIMKim (2)XO  05:16+2405:18+342m--2205.91018mWRNH 8, Gujarat
28KDSDKudsad (2)X  05:34+2405:36+242m--2208.77118mWRNH 8, Gujarat
29SYNSayan (3)X  05:42+2305:44+262m--2215.91321mWRSayan Satellite town, Gujarat
30GTXGothangam (2)O  05:58+1806:00+192m--2218.83719mWRAmroli Sayan Rd, Gujarat
31KSEKosad (2)O  06:06+1906:08+212m--2222.51317mWRSurat, Gujarat
32URNUtran (3)XO  06:23+1306:25+182m--2225.7815mWRSurat, Gujarat
33STSurat (4)XOO  06:55+907:15+820m32229.64019mWRSurat 395001, Gujarat
34UDNUdhna Junction (3)X  07:21+1207:23+122m22233.63616mWRUdhna 394210, Gujarat
35BHETBhestan (2)O  07:31+1107:32+141m22238.45713mWRSurat, Gujarat
36SCHSachin (3)O  07:38+1507:40+162m--2244.16611mWRKansad Road Sachin, Gujarat
37MRLMaroli (3)XO  07:46+1807:48+202m--2250.73015mWRMaroli, Gujarat
38NVSNavsari (3)O  08:05+1308:06+191m--2259.25114mWRNavsari, Gujarat
39VDHVedchha (3)X  08:16+1908:17+201m--2267.65113mWRNavsari, Gujarat
40ACLAncheli (2)X  08:21+2008:23+202m--2271.05720mWRNavsari, Gujarat
41AMLAmalsad (3)  08:27+2008:29+202m--2274.85612mWRAmalsad, Gujarat
42BIMBilimora Junction (4)O  08:35+2008:37+212m--2280.34711mWRBilimora, Gujarat
43JRSJoravasan (2)  08:42+2008:44+202m--2284.37615mWRJoravasan, Gujarat
44DGIDungri (3)XO  08:48+2008:50+212m--2289.42120mWRNH 8, Gujarat
45BLValsad (3)X  09:15+909:20+125m--2298.38015mWRValsad, Gujarat
46ATULAtul (3)  09:25+1609:27+152m--2305.06022mWRValsad, Gujarat
47PADPardi (3)  09:31+1609:33+152m--2308.94519mWRValsad, Gujarat
48UVDUdvada (3)XO  09:41+1509:43+182m--2314.92918mWRUdvada, Gujarat
49BAGDBagwada (2)  09:49+1109:51+112m--2317.82722mWRNH8, Gujarat
50VAPIVapi (3)X  10:06+1010:08+152m--2324.54827mWRVapi, Gujarat
51KEBKarambeli (2)XO  10:16+1510:18+152m--2331.04829mWRNational Highway 8, Gujarat
52BLDBhilad (3)X  10:24+1510:26+152m--2335.86933mWRBhilad, Gujarat
53SJNSanjan (3)X  10:36+1710:38+192m--2347.45422mWRSanjan, Gujarat
54UBRUmbargam Road (3)  10:44+2010:46+212m32352.73230mWRUmbergaon, Gujarat
55GVDGholvad (4)  11:03+1411:05+162m--2361.93914mWRGholvad, Maharashtra
56DRD•Dahanu Road (5)•  11:22+1211:25+133m--2373.05712mWRDahanu, Maharashtra
57VGNVangaon (3)X  11:38+1211:40+142m--2385.36311mWRThane, Maharashtra
58BORBoisar (3)  11:49+1411:51+142m32394.73817mWRBoisar Tel.no-02525-266626, Maharashtra
59PLGPalghar (3)XO  12:09+812:11+102m--2406.05619mWRPalghar, Maharashtra
60KLVKelve Road (3)XO  12:20+1012:22+122m--2414.46410mWRThane, Maharashtra
61SAHSaphale (2)XO  12:28+1412:30+132m22420.9588mWRThane, Maharashtra
62VTNVaitarna (2)XO  12:38+1412:40+142m22428.6133mWRThane, Maharashtra
63VRVirar (8)X  13:20+213:28+38m42437.2636mWRThane, Maharashtra
64BSRVasai Road (7)XO  13:36+513:38+52m52445.6397mWRThane-401202, Maharashtra
65BVIMumbai Borivali (8)X  14:05+114:13+28m62463.03819mWRMumbai - 400092, Maharashtra
66BCTMumbai Central (9)  15:00+5---2492.6-3mWRMumbai-400 008, Maharashtra
Scroll to Top
Scroll to Bottom